STARLINK-1356, 45564

Orbit data source: Space-Track

STARLINK-1356, 45564 is a payload satellite owned by SpaceX/Seattle (US) in LEO that was launched on Wed, 22 Apr 2020 UTC via an FALCON 9 launch vehicle from the Air Force Eastern Test Range (AFETR). Payload-class satellites include a variety of spacecraft equipped with specific instruments for various scientific and technological missions. These include communications satellites like Starlink; space stations such as the ISS; scientific satellites like the Hubble; Earth observation satellites from companies like Planet Labs, Umbra, and HawkEye 360; GPS; miniature CubeSats for education and research; and military/defense satellites.

Loading next visibility...
Identifier
45564, 2020-025AK
Orbit
LEO
Country
Flag of USUS
Related business
Manufacturer
SpaceX/Seattle
Mission
Partially operational Commercial Communications
Bus & Motor
STARLINK, Unknown motor
Mass
260 kg wet, ~248 kg dry
Launch date (UTC)
2020-04-22 (6 years ago)
Launch vehicle
FALCON 9
Launch site
Air Force Eastern Test Range (AFETR)
Object type
Payload
Rocket body
Debris
Shape & HBR
Box + 1 Pan, 10.1 m
Radar Cross Section
13.562 m², Large (>1 m²)

Expand to show TLE details & history
Last TLE update: 19 hours ago

TLE from 19 hours ago
0 STARLINK-1356
1 45564U 20025AK  26140.15864950  .00117971  00000-0  16955-2 0  9998
2 45564  53.0463  90.7332 0003850  39.9578 320.1715 15.55225404336631
Epoch: 2026-05-20T03:48Z
TLE epoch observation values (Epoch: 2026-05-20T03:48:27.316Z)
Latitude
-0.00003°
Longitude
155.79714°
Altitude
400.391 km
Speed
7.673 km/s
True Right ascension
06h 02m 55s
True Declination
0° 00' 00"
Sunlit
Object was in daylight at epoch
Visualization orbit readout
Latitude
Unknown
Longitude
Unknown
Altitude
Unknown
Speed
Unknown
Apparent Right ascension
Unknown
Apparent Declination
Unknown
Sunlit
N/A
Visualization observer readout
Local Sidereal Time
07:31:10
Azimuth
Unknown
Elevation
Unknown
Doppler factor
Unknown
Orbital elements
Apogee altitude
404.385 km
Perigee altitude
399.165 km
Semi-major axis
6,779.912 km
Eccentricity
0.00039
Inclination
53.0463°
RAAN
90.7332°
Arg. of periapsis
39.9578°
True anomaly
320.14323°
Mean anomaly
320.1715°
Eccentric anomaly
320.15737°
Mean motion
3.88783 °/min
Orbital period
92.6 mins
BSTAR
0.0016955
Loading maneuver chart data...
Computing Atmospheric mass density...

Documentation

Showing up to 5 results
|